Powrót do katalogu

RASCOM QAF 1R

AktywnyŁącznośćGEO
NORAD 36831·PAYLOAD·🇨🇦 Canada

Wystrzelony Aug 4, 2010 z Guiana Space Centre

Loading…

TLE

ŚwieżeSource: Space-Track

Epoka: Sep 14, 2026, 13:49 UTC

1 36831U 10037B   26257.57570769  .00000011  00000-0  00000-0 0  9992
2 36831   0.0184 139.1385 0005131  34.6293  29.9404  1.00271701 59206

Śledź RASCOM QAF 1R w czasie rzeczywistym z AllMySat

Download on the App Store